カタログに戻る

TITAN 3C TRANSTAGE R/B

運用中MEO
NORAD 5589·ROCKET BODY·🇺🇸 United States

打ち上げ Nov 3, 1971 から Cape Canaveral Space Force Station

Loading…

次のパス (今後24時間)

TLE

最新Source: Space-Track

元期: Sep 14, 2026, 12:28 UTC

1 05589U 71095C   26257.51949671 -.00000196  00000-0  00000-0 0  9990
2 05589   3.0484 272.2764 0165703 189.4310 276.4992  0.97188871120298

AllMySatでTITAN 3C TRANSTAGE R/Bをリアルタイム追跡

Download on the App Store